Wind_Speed
39 41 43 45 48 50 53 56 58 61 64 67 69 72 75 78 80 82 84 86 88 89 91 92 93 93 93 93 92 90 89 88 88 82 80 82 84 84 84 84 83 83 83
41 44 46 49 51 54 57 60 63 66 69 72 74 77 80 82 84 86 88 89 91 92 92 93 92 91 89 86 84 82 80 79 78 75 70 72 73 74 74 75 75 75 76
45 48 50 53 55 58 61 64 67 70 73 76 79 81 83 85 87 89 91 91 92 93 92 91 87 84 80 77 75 73 71 69 69 67 62 62 63 64 65 65 66 67 68
49 51 54 56 59 62 65 68 71 74 77 80 82 84 86 88 90 91 92 93 92 90 87 83 78 74 70 68 66 64 63 63 62 60 57 56 56 57 58 58 59 60 61
52 54 57 60 63 66 69 72 75 78 80 83 85 87 89 90 91 92 92 90 87 82 76 71 67 64 62 61 59 58 58 57 56 55 53 52 51 51 52 53 54 55 55
55 57 60 63 66 69 72 75 78 80 83 85 87 89 91 91 91 90 88 84 78 72 66 62 59 57 56 55 54 54 53 53 52 51 49 48 46 46 47 48 48 50 50
58 61 64 67 70 73 76 78 81 83 85 87 89 90 90 89 88 85 79 74 68 63 59 56 54 53 52 51 50 50 49 49 48 48 46 44 43 42 43 43 44 45 45
61 64 67 70 73 76 78 81 83 85 87 89 90 90 88 85 82 76 70 65 60 56 54 52 50 49 48 48 47 46 45 45 45 45 44 42 41 40 40 40 40 41 41
64 67 70 73 76 78 80 83 85 87 88 89 89 87 84 79 73 67 63 58 54 51 50 49 48 46 46 46 45 44 42 41 42 42 42 41 40 39 38 38 38 38 38
67 70 73 76 78 80 83 85 86 88 88 88 86 83 78 71 65 61 58 54 51 49 47 46 45 44 43 43 43 42 41 40 40 40 39 39 38 37 37 37 37 37 37
69 72 75 77 80 82 84 86 87 88 87 85 82 77 70 64 60 56 54 51 49 47 45 43 42 42 41 41 41 40 40 39 38 37 37 36 36 36 36 36 36 35 36
72 74 76 79 81 83 85 85 86 86 84 80 75 68 62 58 55 52 50 48 47 46 43 41 40 40 40 39 39 39 38 37 36 36 35 35 35 35 35 35 34 34 34
73 76 78 80 82 83 84 85 84 82 79 73 68 62 56 53 50 47 46 45 45 43 41 40 40 39 38 37 37 37 36 35 35 34 34 34 34 33 33 33 33 33 33
75 78 80 81 82 83 83 83 81 77 72 67 62 57 51 48 45 44 43 42 41 40 40 39 39 38 37 36 35 35 35 34 33 33 32 32 32 32 32 33 33 33 34
78 80 81 82 82 82 81 79 76 70 66 62 57 52 48 44 42 42 41 39 39 38 37 36 35 35 34 34 34 33 33 33 32 31 31 31 30 31 31 32 32 33 34
80 81 82 82 82 81 78 74 68 63 58 55 52 49 46 44 41 40 39 38 37 36 35 34 33 33 33 32 32 32 32 31 31 30 30 29 29 30 30 31 32 33 34
81 82 82 81 80 78 74 69 61 54 50 48 47 46 44 42 40 39 37 36 35 34 33 33 32 32 32 32 31 31 31 30 30 29 29 29 29 29 30 30 31 32 33
81 81 80 79 77 72 68 62 55 49 45 42 42 43 42 40 39 37 36 35 33 33 32 32 31 31 31 31 30 30 29 29 28 28 28 28 28 29 29 30 30 31 32
80 79 78 76 71 66 61 55 50 46 43 41 40 39 39 38 37 36 35 34 32 32 31 31 31 31 30 29 29 28 27 27 27 27 27 27 27 27 27 28 28 29 30
78 77 75 71 65 60 54 50 46 43 41 40 39 38 36 35 34 34 34 33 32 31 31 31 31 30 29 28 28 27 26 26 26 26 26 26 26 26 26 27 27 28 29
76 73 69 64 59 54 49 45 42 41 40 39 38 37 36 34 33 32 31 31 30 30 30 30 30 29 28 27 26 25 25 25 25 25 25 25 25 26 27 27 28 28 29
72 68 62 57 52 48 44 41 39 39 39 38 37 35 35 34 32 31 30 29 29 29 29 29 28 27 27 26 25 24 23 23 24 24 25 25 26 26 26 27 27 28 28
66 61 55 51 46 42 39 37 37 38 37 36 35 34 33 32 31 30 28 28 28 28 27 27 26 25 25 24 22 22 22 22 23 23 24 24 25 25 25 26 26 27 27
59 54 49 45 41 37 36 36 36 36 36 35 34 33 31 30 29 28 27 27 27 26 26 25 24 23 22 21 20 21 21 22 22 23 23 24 24 25 25 25 26 26 27
51 47 43 39 36 34 34 34 35 35 34 33 32 30 30 29 28 26 26 25 25 24 24 23 23 21 20 20 20 21 22 22 23 23 24 24 25 25 25 25 25 26 27
45 41 38 35 33 33 33 33 33 33 32 31 30 29 28 27 26 24 24 23 23 22 22 21 20 20 19 19 20 21 22 23 24 24 25 25 25 25 25 26 26 27 27
Wind_Direction
288 289 291 292 293 295 296 297 298 299 300 301 301 301 301 301 301 301 300 299 299 298 297 296 295 294 292 291 289 288 287 285 284 282 279 277 275 273 271 269 267 266 265
290 292 293 294 296 297 298 300 301 302 302 303 303 303 303 303 303 302 301 301 300 299 298 297 296 295 293 292 290 289 288 287 286 285 281 278 276 274 272 270 268 266 265
293 294 295 297 298 299 301 302 303 304 304 304 305 305 305 304 304 303 303 302 301 300 299 298 297 295 294 292 291 290 288 287 286 286 284 280 277 276 274 272 269 267 265
295 296 297 299 300 301 303 304 305 305 305 306 306 306 306 306 305 305 304 303 302 301 300 299 297 295 294 292 291 290 289 288 287 286 285 282 279 277 275 272 270 267 265
296 298 299 301 302 303 304 305 306 306 307 307 307 308 308 307 307 306 305 304 303 301 300 298 296 295 294 292 291 290 289 289 288 287 286 283 281 278 276 273 271 268 266
298 299 301 302 303 304 305 306 307 307 308 308 309 309 309 309 308 307 306 304 303 302 300 297 296 294 293 292 292 291 290 289 288 287 286 284 282 279 276 274 272 269 267
299 301 302 303 305 306 307 307 308 309 309 310 310 310 310 310 308 307 306 304 303 301 299 298 296 295 293 293 292 291 291 290 289 288 286 285 282 279 277 275 272 270 268
301 302 304 305 306 307 308 308 309 309 310 311 311 311 311 310 308 307 305 303 302 301 300 298 297 295 294 293 292 292 291 290 288 287 287 286 283 280 278 275 272 270 268
302 304 305 306 307 308 309 309 310 310 311 312 312 312 311 310 308 306 304 303 303 301 301 299 297 296 295 294 294 293 292 290 288 287 286 284 283 280 277 274 272 270 268
304 305 306 307 308 309 310 310 311 312 313 313 313 312 311 309 308 306 305 304 303 302 302 300 298 297 296 295 295 294 293 290 288 287 286 284 281 279 276 274 272 270 268
305 307 308 308 309 310 311 312 312 313 313 313 313 312 311 309 307 306 305 304 304 304 303 301 299 298 297 296 295 295 294 291 289 287 285 282 280 278 276 274 273 271 270
306 308 308 309 310 311 312 313 314 314 314 313 313 311 310 308 307 305 305 304 304 304 303 302 301 299 298 297 295 295 294 292 290 288 286 282 279 277 276 274 273 272 270
307 308 309 310 311 312 313 314 315 315 314 313 312 311 309 308 306 305 305 304 304 304 303 303 302 301 299 297 296 295 294 293 291 290 288 284 280 277 275 274 272 272 271
308 309 310 311 312 313 314 315 315 314 313 312 311 310 309 308 306 305 305 304 303 303 303 302 302 301 300 298 297 296 295 293 292 291 289 286 282 278 276 275 274 273 272
309 310 311 312 313 314 315 315 315 314 312 312 311 310 309 308 307 307 307 306 305 304 303 303 302 301 300 299 298 297 296 295 293 292 290 287 284 280 278 277 277 276 275
310 311 312 313 314 314 315 315 314 313 312 311 311 311 310 310 309 309 308 308 307 306 306 305 304 303 302 301 299 298 296 295 294 292 291 289 286 282 280 280 279 278 277
311 312 313 313 314 315 315 314 313 312 311 310 310 310 310 310 310 309 309 309 309 307 307 307 306 305 304 303 301 299 298 297 295 293 292 290 289 286 284 283 282 281 280
312 312 313 314 314 314 314 314 313 312 311 310 310 310 310 310 310 309 310 310 309 308 308 308 308 307 307 305 303 302 300 298 297 296 294 292 291 289 287 286 285 284 283
312 312 313 314 314 313 313 312 312 312 312 312 311 311 310 311 310 310 310 310 310 309 309 309 309 309 309 307 305 303 302 301 300 299 297 296 294 293 291 290 289 287 286
312 313 313 313 312 312 311 311 310 311 311 312 312 311 310 310 310 309 309 309 309 310 310 310 310 310 310 309 306 304 303 302 301 301 300 299 297 296 295 294 292 291 290
312 312 312 311 311 310 309 309 309 310 311 312 313 312 311 311 311 310 309 310 310 310 311 312 312 311 310 310 308 307 305 303 303 303 302 301 300 299 298 296 295 294 293
311 311 310 310 309 308 308 308 308 309 311 312 313 313 312 312 312 312 311 312 312 313 313 314 314 313 312 311 310 309 308 307 306 306 305 304 303 302 301 300 300 298 296
310 309 309 308 307 306 306 306 308 309 311 312 313 313 312 313 313 312 311 312 313 314 315 316 317 316 315 314 313 312 312 312 311 311 310 309 308 307 305 304 303 302 300
309 308 307 306 305 304 305 306 307 308 310 311 312 312 313 313 313 312 312 313 315 316 316 317 318 318 319 318 318 317 316 316 315 315 315 314 312 311 309 308 306 305 304
307 306 305 304 303 303 303 305 307 308 309 310 311 312 313 313 313 312 313 315 316 317 318 319 320 320 320 321 321 321 321 320 319 318 318 318 316 314 312 310 309 308 308
305 304 302 301 301 302 303 305 306 308 309 309 310 311 313 313 313 313 314 316 318 319 320 322 322 322 322 322 322 323 323 323 321 321 321 320 319 317 315 314 312 312 311
Height
5737 5734 5730 5726 5721 5716 5711 5705 5699 5693 5686 5679 5671 5664 5655 5646 5636 5627 5618 5608 5598 5588 5577 5566 5557 5545 5535 5526 5516 5508 5500 5491 5486 5497 5494 5485 5478 5476 5476 5475 5474 5473 5475
5727 5723 5718 5713 5708 5703 5697 5691 5684 5677 5669 5661 5653 5644 5635 5625 5614 5604 5594 5583 5572 5561 5550 5539 5528 5516 5507 5497 5489 5481 5474 5467 5460 5463 5468 5459 5453 5450 5449 5449 5448 5447 5449
5715 5711 5706 5701 5695 5689 5682 5675 5668 5660 5652 5643 5633 5624 5614 5603 5591 5580 5568 5558 5546 5534 5523 5511 5501 5490 5481 5473 5465 5458 5452 5446 5440 5438 5441 5437 5432 5428 5426 5426 5425 5424 5425
5703 5698 5693 5687 5681 5674 5667 5659 5651 5642 5633 5623 5613 5602 5591 5580 5567 5555 5543 5532 5520 5508 5496 5485 5476 5466 5459 5451 5445 5439 5433 5427 5423 5419 5419 5417 5413 5409 5406 5406 5405 5404 5406
5691 5685 5679 5673 5666 5659 5651 5642 5633 5624 5614 5603 5592 5580 5568 5556 5543 5530 5518 5506 5495 5485 5474 5464 5455 5447 5440 5433 5427 5422 5416 5411 5407 5403 5401 5398 5396 5392 5390 5388 5387 5387 5388
5678 5672 5665 5658 5651 5642 5634 5625 5615 5605 5594 5582 5570 5558 5545 5532 5518 5504 5491 5481 5472 5462 5454 5446 5438 5431 5425 5418 5412 5406 5401 5396 5392 5388 5385 5383 5381 5378 5375 5373 5372 5372 5374
5664 5657 5650 5642 5634 5625 5616 5606 5596 5585 5574 5562 5549 5536 5523 5509 5495 5482 5469 5459 5451 5443 5436 5429 5422 5416 5409 5404 5398 5393 5388 5382 5378 5374 5371 5369 5366 5364 5362 5360 5359 5359 5359
5650 5643 5634 5626 5617 5608 5598 5587 5576 5565 5553 5540 5527 5514 5500 5487 5473 5461 5450 5441 5434 5427 5419 5413 5407 5401 5395 5389 5384 5380 5375 5370 5365 5361 5358 5356 5353 5351 5349 5348 5346 5346 5347
5635 5627 5618 5609 5600 5590 5579 5568 5556 5544 5532 5519 5505 5492 5478 5466 5453 5442 5432 5425 5419 5412 5406 5399 5393 5388 5382 5376 5371 5367 5363 5359 5354 5350 5346 5343 5341 5339 5337 5336 5335 5335 5335
5619 5611 5601 5591 5581 5570 5559 5548 5535 5523 5510 5498 5485 5471 5458 5447 5436 5426 5416 5410 5404 5399 5393 5386 5380 5374 5369 5363 5358 5354 5350 5346 5342 5339 5335 5332 5330 5328 5326 5325 5324 5324 5324
5603 5594 5584 5573 5562 5551 5540 5528 5515 5502 5490 5477 5465 5453 5441 5430 5421 5412 5403 5396 5390 5385 5379 5374 5368 5362 5357 5352 5347 5342 5338 5334 5330 5327 5324 5321 5319 5317 5316 5314 5313 5313 5313
5587 5578 5567 5556 5544 5532 5520 5508 5494 5481 5469 5457 5445 5436 5425 5415 5407 5399 5391 5384 5377 5372 5367 5361 5356 5351 5346 5341 5336 5331 5327 5323 5319 5316 5313 5311 5309 5307 5305 5304 5303 5303 5303
5570 5559 5548 5537 5525 5512 5500 5488 5475 5461 5448 5437 5427 5419 5411 5403 5394 5387 5380 5373 5366 5360 5355 5350 5345 5340 5335 5330 5326 5321 5317 5313 5309 5306 5303 5300 5298 5296 5295 5294 5293 5292 5292
5552 5541 5530 5519 5507 5495 5481 5468 5455 5442 5430 5420 5411 5403 5397 5390 5382 5376 5369 5363 5357 5350 5345 5340 5334 5329 5324 5320 5316 5311 5307 5303 5299 5296 5293 5290 5288 5286 5284 5283 5282 5281 5281
5534 5523 5512 5500 5488 5477 5465 5451 5438 5426 5413 5403 5396 5389 5382 5377 5371 5364 5357 5352 5346 5340 5334 5330 5325 5320 5315 5310 5306 5301 5297 5293 5290 5286 5283 5280 5278 5276 5274 5273 5272 5271 5270
5515 5504 5493 5481 5469 5458 5447 5437 5424 5412 5402 5391 5382 5376 5370 5364 5359 5353 5347 5341 5335 5329 5324 5320 5315 5310 5306 5301 5297 5293 5288 5284 5281 5277 5274 5271 5268 5266 5264 5263 5261 5260 5258
5495 5484 5473 5462 5450 5439 5428 5418 5411 5402 5391 5382 5374 5366 5360 5354 5348 5343 5337 5332 5326 5320 5316 5311 5306 5301 5297 5292 5288 5283 5279 5275 5272 5268 5265 5262 5259 5257 5254 5252 5250 5248 5247
5476 5465 5454 5443 5432 5422 5411 5402 5393 5387 5381 5374 5366 5358 5351 5345 5339 5333 5328 5323 5318 5312 5307 5303 5298 5293 5288 5283 5279 5274 5270 5266 5263 5259 5256 5253 5250 5247 5245 5243 5240 5238 5236
5458 5447 5436 5426 5415 5405 5396 5388 5381 5374 5368 5362 5356 5350 5343 5337 5331 5325 5319 5314 5310 5305 5300 5295 5290 5285 5280 5275 5270 5266 5262 5258 5255 5251 5248 5245 5242 5239 5236 5233 5231 5228 5226
5440 5429 5418 5408 5399 5390 5382 5375 5369 5363 5357 5351 5345 5339 5334 5329 5323 5318 5312 5306 5301 5297 5292 5287 5282 5277 5272 5267 5262 5258 5254 5251 5247 5243 5240 5237 5234 5231 5228 5225 5222 5219 5216
5422 5413 5402 5393 5384 5377 5370 5363 5358 5352 5347 5341 5336 5330 5324 5319 5314 5309 5304 5299 5294 5289 5284 5279 5274 5269 5264 5259 5255 5251 5247 5243 5240 5236 5233 5229 5226 5222 5219 5216 5213 5209 5206
5404 5395 5387 5378 5371 5364 5358 5353 5347 5342 5337 5332 5327 5322 5316 5311 5306 5301 5296 5291 5286 5281 5276 5271 5266 5261 5256 5252 5248 5244 5240 5236 5233 5229 5226 5222 5218 5214 5211 5207 5204 5200 5197
5387 5379 5372 5365 5358 5353 5348 5343 5338 5333 5328 5323 5318 5313 5308 5303 5298 5294 5289 5284 5280 5275 5270 5265 5260 5255 5250 5246 5242 5238 5234 5230 5227 5223 5219 5215 5211 5207 5203 5199 5195 5192 5188
5371 5364 5358 5352 5347 5342 5338 5334 5329 5324 5320 5315 5310 5305 5301 5296 5291 5287 5282 5278 5273 5268 5264 5259 5254 5250 5245 5241 5237 5233 5229 5225 5221 5217 5213 5209 5204 5200 5196 5192 5188 5183 5179
5357 5351 5346 5341 5337 5333 5329 5325 5321 5316 5311 5307 5302 5298 5293 5289 5284 5280 5276 5271 5267 5262 5258 5254 5249 5245 5241 5237 5233 5229 5224 5220 5216 5211 5207 5203 5198 5194 5189 5185 5180 5176 5171
5345 5339 5335 5331 5327 5324 5320 5316 5312 5308 5304 5299 5295 5291 5286 5282 5278 5274 5270 5266 5261 5257 5253 5249 5245 5241 5237 5233 5229 5224 5220 5215 5211 5206 5201 5196 5192 5187 5182 5177 5173 5168 5164